Weather History for Targu Mures, Romania

Change the Weather History Date:

Tuesday, June 3, 2014

  Actual Average Record
Temperature  
Mean Temperature 58 °F -  
Max Temperature 71 °F 75 °F 82 °F (2011)
Min Temperature 44 °F 53 °F 44 °F (2005)
Degree Days  
Heating Degree Days 8    
Growing Degree Days 8 (Base 50)    
Moisture  
Dew Point 52 °F    
Average Humidity 80    
Maximum Humidity 100    
Minimum Humidity 50    
Precipitation  
Precipitation 0.00 in - - ()
Sea Level Pressure  
Sea Level Pressure 29.99 in    
Wind  
Wind Speed 3 mph ()    
Max Wind Speed 16 mph    
Max Gust Speed -    
Visibility 5.4 miles    
Events Rain , Thunderstorm    
Averages and records for this station are not official NWS values.
T = Trace of Precipitation, MM = Missing Value Source: Averaged Metar Reports

Daily Weather History Graph

Daily Weather History Graph

Search for Another Location

Airport:

Trip Planner

Search our weather history database for the weather conditions in past years. The results will help you decide how hot, cold, wet, or windy it might be!

Date:

Astronomy

Jun. 03, 2014 Rise Set
Actual Time 5:32 AM EEST 9:09 PM EEST
Civil Twilight 4:54 AM EEST 9:47 PM EEST
Nautical Twilight 4:03 AM EEST 10:38 PM EEST
Astronomical Twilight 2:55 AM EEST 11:47 PM EEST
Moon 10:49 AM EEST (6/3) 12:15 AM EEST (6/3)
Length of Visible Light 16h 52m
Length of Day
15h 36m
Waxing Crescent, 27% of the Moon is Illuminated
Jun 3
Waxing Crescent
Jun 5
First Quarter
Jun 13
Full
Jun 19
Last Quarter
Jun 27
New

Hourly Weather History & Observations

Time (EEST) Temp. Windchill Dew Point Humidity Pressure Visibility Wind Dir Wind Speed Gust Speed Precip Events Conditions
12:00 AM 50.0 °F - 50.0 °F 100% 30.01 in 5.0 mi Calm Calm - N/A   Unknown
1:00 AM 50.0 °F - 50.0 °F 100% 30.01 in 4.3 mi ENE 4.6 mph - N/A   Unknown
2:00 AM 46.4 °F 44.3 °F 46.4 °F 100% 29.98 in 4.3 mi East 4.6 mph - N/A   Unknown
3:00 AM 46.4 °F 44.3 °F 46.4 °F 100% 30.01 in 4.3 mi East 4.6 mph - N/A   Partly Cloudy
4:00 AM 46.4 °F 44.3 °F 46.4 °F 100% 30.01 in 0.7 mi East 4.6 mph - N/A   Partly Cloudy
5:00 AM 46.4 °F 44.3 °F 46.4 °F 100% 30.01 in 1.7 mi East 4.6 mph - N/A   Scattered Clouds
5:30 AM 44.6 °F - 44.6 °F 100% 30.01 in 1.1 mi East 2.3 mph - N/A   Mostly Cloudy
6:30 AM 48.2 °F - 48.2 °F 100% 30.01 in 3.1 mi ENE 6.9 mph - N/A   Scattered Clouds
7:00 AM 48.2 °F - 48.2 °F 100% 30.01 in - ENE 4.6 mph - N/A   Scattered Clouds
7:30 AM 50.0 °F - 50.0 °F 100% 30.01 in 3.1 mi East 6.9 mph - N/A   Scattered Clouds
8:00 AM 51.8 °F - 51.8 °F 100% 30.01 in 3.7 mi East 4.6 mph - N/A   Partly Cloudy
8:30 AM 53.6 °F - 53.6 °F 100% 30.01 in 5.0 mi Variable 2.3 mph - N/A   Partly Cloudy
9:00 AM 55.4 °F - 53.6 °F 94% 30.01 in 6.2 mi Variable 2.3 mph - N/A   Partly Cloudy
9:30 AM 59.0 °F - 55.4 °F 88% 30.01 in 6.2 mi Variable 2.3 mph - N/A   Partly Cloudy
10:00 AM 59.0 °F - 55.4 °F 88% 30.01 in 6.2 mi Variable 2.3 mph - N/A   Partly Cloudy
10:30 AM 60.8 °F - 57.2 °F 88% 30.01 in 6.2 mi Variable 2.3 mph - N/A   Partly Cloudy
11:00 AM 62.6 °F - 57.2 °F 82% 30.01 in 6.2 mi Variable 2.3 mph - N/A   Partly Cloudy
11:30 AM 64.4 °F - 55.4 °F 73% 30.01 in 6.2 mi Variable 2.3 mph - N/A   Partly Cloudy
12:00 PM 68.0 °F - 55.4 °F 64% 30.01 in 6.2 mi Variable 2.3 mph - N/A   Partly Cloudy
12:30 PM 68.0 °F - 51.8 °F 56% 30.01 in 6.2 mi Variable 2.3 mph - N/A   Partly Cloudy
1:00 PM 69.8 °F - 55.4 °F 60% 29.98 in 6.2 mi Variable 4.6 mph - N/A   Partly Cloudy
1:30 PM 68.0 °F - 53.6 °F 60% 29.98 in 6.2 mi NNW 4.6 mph - N/A   Partly Cloudy
2:00 PM 69.8 °F - 53.6 °F 56% 29.98 in 6.2 mi Variable 2.3 mph - N/A   Partly Cloudy
2:30 PM 69.8 °F - 53.6 °F 56% 29.98 in 6.2 mi North 4.6 mph - N/A   Partly Cloudy
3:00 PM 68.0 °F - 53.6 °F 60% 29.98 in 6.2 mi SW 4.6 mph - N/A   Partly Cloudy
3:30 PM 68.0 °F - 51.8 °F 56% 29.95 in 6.2 mi South 4.6 mph - N/A   Partly Cloudy
4:00 PM 69.8 °F - 51.8 °F 53% 29.95 in 6.2 mi Variable 2.3 mph - N/A   Partly Cloudy
4:30 PM 69.8 °F - 53.6 °F 56% 29.95 in 6.2 mi Variable 2.3 mph - N/A   Partly Cloudy
5:00 PM 69.8 °F - 51.8 °F 53% 29.95 in 6.2 mi ENE 4.6 mph - N/A   Partly Cloudy
5:30 PM 69.8 °F - 51.8 °F 53% 29.95 in 6.2 mi Variable 4.6 mph - N/A Thunderstorm Partly Cloudy
6:00 PM 71.6 °F - 51.8 °F 50% 29.95 in 6.2 mi ESE 4.6 mph - N/A Thunderstorm Scattered Clouds
6:30 PM 71.6 °F - 53.6 °F 53% 29.95 in 6.2 mi ESE 4.6 mph - N/A Thunderstorm Scattered Clouds
7:00 PM 66.2 °F - 55.4 °F 68% 29.95 in 6.2 mi ESE 16.1 mph - N/A Thunderstorm Mostly Cloudy
7:30 PM 62.6 °F - 55.4 °F 77% 29.98 in 6.2 mi SSE 11.5 mph - N/A Rain , Thunderstorm Light Thunderstorms and Rain
8:00 PM 59.0 °F - 55.4 °F 88% 29.98 in 6.2 mi West 4.6 mph - N/A Rain , Thunderstorm Light Thunderstorms and Rain
8:30 PM 57.2 °F - 55.4 °F 94% 29.98 in 6.2 mi West 4.6 mph - N/A Rain , Thunderstorm Light Thunderstorms and Rain
9:00 PM 57.2 °F - 57.2 °F 100% 29.98 in 6.2 mi West 4.6 mph - N/A   Scattered Clouds
10:00 PM 55.4 °F - 55.4 °F 100% 29.98 in 6.2 mi Variable 2.3 mph - N/A   Partly Cloudy
11:00 PM 53.6 °F - 53.6 °F 100% 29.98 in 6.2 mi Variable 2.3 mph - N/A   Partly Cloudy